GFSWCAN_con_3kmhel_105.txt.gz
Helicity
60 35 38 49 49 40 19 26 54 55 51 44 58 44 42 65 16 49 129 195 194 125 67 65 60 57 40 40 27 -2 -18 -22 -24 -30 4 -2 9 23 45 42 30 16 11 12 20 58 56 58 38 52 50 85 84 89
34 18 41 20 49 33 6 18 53 51 54 37 47 42 49 59 21 14 69 224 184 122 77 43 36 12 59 44 37 17 -1 -30 -23 -23 -33 -3 10 21 28 54 21 41 31 31 15 33 53 70 112 135 94 94 95 100
41 24 17 11 44 18 13 21 44 47 49 41 49 45 54 57 27 5 135 209 168 116 63 43 42 68 34 23 56 25 -6 -1 -41 -11 -22 22 24 -12 18 16 15 2 19 -28 24 117 104 101 132 141 115 104 85 80
42 30 26 24 33 33 18 7 42 43 40 40 58 70 67 59 63 17 137 169 182 110 50 31 45 21 37 50 70 88 63 43 62 26 -23 18 7 -4 2 0 7 17 12 -8 44 100 121 173 128 100 108 97 74 53
48 14 28 21 17 26 27 14 36 42 38 47 48 65 49 46 60 41 159 142 187 120 46 24 -22 80 65 72 59 39 38 22 -23 -6 -2 34 -1 -12 9 -6 10 -11 8 20 25 105 91 99 135 126 139 103 69 43
69 17 16 20 19 35 22 26 32 45 33 30 44 49 49 44 42 142 144 141 148 98 53 26 23 46 75 57 65 33 35 41 53 33 24 6 18 3 2 -1 -14 4 8 28 4 29 74 70 99 72 50 54 29 17
50 33 -2 11 18 26 17 19 30 40 18 18 45 50 70 84 77 63 49 52 144 162 68 22 19 39 34 64 60 35 20 40 41 53 36 38 11 7 2 -3 34 20 31 37 71 -4 28 57 29 19 20 20 21 24
60 35 43 17 14 22 25 27 52 58 40 45 66 51 60 23 93 106 113 81 139 86 41 32 20 21 18 32 39 40 40 53 43 56 36 36 45 13 -1 48 60 58 29 50 70 56 42 37 34 37 32 22 26 33
60 76 32 7 22 26 36 47 44 54 48 89 102 45 57 103 107 88 79 83 68 69 53 38 34 12 24 34 52 70 67 44 57 58 54 39 39 40 46 53 61 87 57 43 32 56 51 40 40 44 43 39 31 29
74 64 24 23 20 46 55 50 25 16 71 83 59 60 115 79 55 192 151 100 105 79 72 40 31 20 11 22 27 46 48 50 37 46 71 60 63 72 84 100 89 82 78 73 -7 35 50 47 36 39 40 38 44 49
57 26 25 26 49 53 61 47 50 68 72 33 67 93 84 46 159 94 96 101 94 73 54 45 53 58 24 29 29 88 35 51 35 45 56 42 43 89 107 114 112 97 80 54 47 58 61 54 42 38 56 68 71 80
31 30 44 55 66 28 57 85 99 68 53 54 86 154 180 138 87 81 73 89 61 57 46 37 45 57 47 45 25 41 64 58 39 96 110 82 88 88 87 78 56 58 62 64 70 64 68 62 66 69 74 85 97 102
53 60 67 26 61 103 139 122 83 29 154 290 169 213 178 183 111 56 57 102 79 44 42 55 39 50 61 34 11 22 81 74 141 141 130 100 71 71 95 92 77 66 54 47 56 76 91 106 119 106 106 98 86 103
56 41 65 102 134 122 91 21 186 292 470 330 240 261 163 167 107 76 99 86 103 87 63 78 64 56 54 14 16 11 92 81 102 108 105 105 74 77 79 70 69 78 85 95 102 108 122 126 115 140 108 80 77 84
110 124 125 108 111 126 121 150 120 203 427 322 302 170 130 123 123 131 136 136 135 103 78 73 77 59 57 30 47 37 33 27 30 65 79 81 76 57 41 46 53 69 83 104 103 108 109 97 103 105 94 82 80 83
119 92 111 122 134 116 53 114 142 157 149 216 208 115 134 165 156 141 147 130 137 125 96 80 54 59 58 45 55 58 46 41 45 43 57 46 44 56 61 58 60 62 65 70 76 77 81 91 94 93 89 97 99 99
143 151 52 80 70 117 99 129 176 143 120 127 135 138 110 165 146 125 137 140 136 76 39 36 44 48 40 51 53 64 58 65 64 76 86 84 77 80 68 81 76 69 72 82 84 84 88 81 75 90 122 92 81 75
199 110 114 130 104 85 111 91 108 143 122 186 105 101 99 133 133 134 140 148 82 52 54 41 42 52 49 43 44 48 66 67 81 84 82 80 68 63 65 80 67 69 85 89 89 85 83 97 107 100 86 61 65 63
131 166 155 134 89 81 105 80 70 72 97 130 111 107 104 109 134 124 124 156 123 109 79 62 39 -13 -5 18 26 27 28 43 50 67 77 70 69 67 63 55 56 76 88 79 73 70 62 54 49 45 42 37 53 47
148 166 146 127 107 85 64 65 76 67 55 70 82 84 81 89 105 146 161 154 99 51 8 -11 -24 -35 -36 25 19 18 21 45 67 79 79 81 72 76 84 86 89 78 73 69 66 57 57 56 45 36 40 43 50 55
119 108 132 104 125 70 19 32 31 32 37 29 26 36 38 65 72 86 89 95 31 12 -5 4 -1 5 22 14 14 31 28 29 36 44 44 62 60 65 72 68 62 63 64 65 68 71 68 70 67 67 66 66 56 50
76 68 64 79 51 43 12 70 21 36 54 49 53 53 53 57 55 53 57 30 18 41 43 6 12 19 31 36 23 18 27 52 58 76 83 94 90 87 85 75 70 68 61 55 55 54 54 49 47 49 50 50 49 50
71 72 63 62 46 55 81 130 88 85 53 44 61 44 44 40 36 38 19 27 65 73 27 14 3 7 44 36 52 52 48 80 90 96 103 113 111 100 94 85 78 81 77 71 61 57 59 58 58 53 48 48 46 47
37 36 63 71 51 53 73 57 63 58 52 43 31 32 43 36 35 15 -2 8 -5 -7 -15 -9 9 38 39 39 47 47 47 65 99 104 85 111 124 112 98 96 89 79 71 71 70 69 67 67 65 64 56 52 41 40
36 67 42 60 70 49 39 49 48 41 42 47 38 32 35 28 17 11 5 -6 -19 -27 -22 -18 -6 9 35 26 34 41 33 46 83 110 85 75 118 110 104 97 91 80 66 73 74 71 68 63 65 65 62 58 55 50
33 61 45 60 68 45 45 38 39 48 62 46 39 34 30 13 3 8 10 -12 -26 -37 -35 -6 8 14 13 1 26 24 34 54 75 101 95 78 90 102 101 98 88 80 72 72 90 90 83 69 59 59 58 54 52 55
25 42 39 44 57 54 58 65 77 69 46 20 18 17 -8 -13 -1 8 6 -30 -42 -49 -25 -6 7 8 14 16 21 31 47 51 70 104 101 93 84 76 90 95 91 78 68 72 84 90 84 72 62 55 54 48 44 45
7 32 18 60 52 75 60 80 71 59 44 44 34 -6 -31 -11 -17 23 -2 -18 17 38 33 15 -1 10 26 24 40 78 101 118 141 134 128 121 107 99 93 86 75 71 68 70 76 83 75 70 64 57 47 44 46 40
27 42 29 58 54 58 75 73 68 75 78 67 27 -30 -35 -38 -2 35 37 40 65 108 98 82 54 64 76 69 48 38 85 101 115 110 119 122 105 94 77 68 65 60 60 70 76 72 71 63 60 55 58 56 61 61
43 47 29 42 42 51 66 79 84 99 113 90 30 28 28 56 81 56 65 71 78 71 62 62 57 64 62 60 57 51 42 51 69 98 113 109 103 97 92 83 77 71 62 66 67 61 58 60 62 61 64 64 58 56
49 46 45 52 50 62 58 87 96 107 122 105 101 85 138 172 174 114 62 35 83 107 118 90 50 35 63 50 48 55 36 40 59 74 82 94 114 111 97 82 69 62 59 63 63 62 59 57 55 56 63 68 66 65
59 51 38 44 51 45 94 111 114 115 139 123 150 155 196 212 152 72 36 65 72 69 44 61 63 12 14 33 41 44 49 96 94 101 126 119 111 97 85 73 63 60 70 69 64 63 60 64 65 66 67 65 61 59
43 55 65 58 66 70 83 100 123 123 146 142 149 157 174 159 152 76 27 -1 8 29 45 43 55 63 69 66 67 78 102 112 119 124 117 116 112 100 83 70 63 64 76 79 74 67 70 65 60 56 54 52 49 43

GFSWCAN_con_3kmhel_108.txt.gz
Helicity
67 72 32 24 24 42 40 33 32 33 46 62 65 68 78 66 59 28 97 130 119 97 20 65 46 23 8 12 -6 4 -22 -3 -24 -27 -14 -24 -5 31 34 27 25 44 42 18 7 30 62 72 15 46 36 53 51 70
120 69 81 18 18 33 47 32 18 21 60 55 64 56 74 66 59 27 39 75 166 130 86 66 -1 -8 -35 -2 9 16 7 -3 -11 -23 -37 -25 -24 14 31 35 21 37 28 51 32 29 26 27 49 92 71 68 71 70
109 136 52 29 19 30 45 40 20 20 57 49 54 52 59 67 65 35 38 68 167 118 74 36 -8 -2 10 48 28 17 16 7 -14 -26 -27 -27 -46 -8 28 26 22 -8 1 3 -5 51 67 66 81 110 94 91 89 84
48 68 35 -4 25 4 18 44 12 4 46 51 53 44 51 70 63 36 39 66 103 67 42 37 56 22 44 24 36 36 -5 24 20 -13 -41 -23 -20 -0 10 15 15 19 6 6 -8 36 74 127 123 110 103 95 92 103
68 57 41 36 5 13 27 29 11 -0 34 45 46 48 54 77 82 39 58 98 113 84 63 29 27 6 23 47 40 25 9 -0 -3 -40 -42 -22 11 5 -0 -5 9 7 -4 6 14 37 61 77 93 91 94 121 144 102
35 51 46 36 27 15 20 29 20 16 26 32 44 38 61 85 76 37 53 77 97 79 66 34 42 47 72 62 54 52 35 44 53 6 -18 18 30 19 8 2 4 2 -15 7 -2 44 96 74 93 101 101 112 117 97
23 37 57 31 42 28 13 19 26 28 29 28 24 34 62 65 43 55 69 58 108 162 66 28 26 44 60 69 71 73 47 45 57 33 8 21 27 -10 5 2 25 -2 25 33 32 -14 31 67 42 48 37 41 48 50
18 24 46 44 24 11 14 33 23 10 27 37 23 50 69 85 18 89 64 50 107 85 48 36 26 22 40 30 50 56 37 32 30 39 35 33 38 37 -4 35 43 31 16 39 46 45 67 44 29 27 11 11 24 37
19 14 42 68 45 4 18 24 13 28 52 49 31 41 54 50 76 79 57 62 109 85 55 28 23 21 34 35 44 47 58 35 50 32 38 39 34 15 71 49 55 50 41 18 7 21 25 28 21 21 31 34 36 36
11 10 50 66 51 33 15 21 34 57 56 54 33 59 71 83 62 161 135 120 119 72 73 31 35 21 12 28 41 26 37 52 28 29 57 49 71 106 89 81 67 57 49 52 -11 14 28 26 26 34 34 37 38 43
-8 22 55 61 38 16 22 33 43 49 81 75 84 69 69 61 126 110 109 104 94 69 56 58 39 41 36 28 28 34 42 31 31 44 42 29 38 71 95 106 98 102 88 62 57 60 53 41 35 30 37 53 63 77
32 48 69 60 25 23 28 40 45 45 62 93 68 86 151 94 77 86 91 111 88 62 51 39 45 57 66 63 37 36 36 60 17 56 58 34 87 99 93 85 82 78 66 60 67 59 71 72 70 66 66 70 80 89
36 60 61 22 21 36 46 53 34 21 45 106 88 110 109 115 62 81 80 118 92 47 31 55 63 58 67 59 42 31 23 59 88 70 90 116 139 103 62 49 54 75 83 82 74 70 69 82 109 103 96 95 93 118
59 45 34 36 38 48 22 20 62 55 69 106 112 107 104 91 86 78 97 90 125 106 81 66 77 47 49 33 24 23 60 80 75 68 107 126 123 90 75 54 43 70 79 85 96 96 108 115 118 127 127 105 101 119
58 57 48 34 9 29 97 109 141 195 85 145 152 115 117 111 127 110 108 141 203 161 144 92 59 37 52 27 31 31 9 27 44 72 80 102 104 97 70 64 54 59 62 70 73 85 103 113 119 131 128 120 117 120
50 38 21 91 141 133 74 274 426 245 171 236 174 133 140 142 109 130 127 127 140 123 85 73 46 25 34 37 27 37 35 46 62 73 83 80 70 41 43 74 75 70 69 70 79 89 96 101 102 103 102 103 100 95
74 68 66 122 187 135 57 367 241 252 210 272 207 152 116 155 138 133 136 134 135 117 81 57 24 42 41 37 52 71 72 76 77 86 92 104 91 80 90 92 76 70 72 78 84 85 87 79 68 76 109 86 78 76
104 152 89 36 117 99 136 155 126 153 232 205 163 153 132 173 137 134 134 147 115 70 57 34 26 41 37 28 39 61 80 89 99 99 101 88 81 73 63 65 50 43 50 55 58 55 53 61 74 80 69 49 43 44
97 83 85 95 142 75 224 137 80 82 115 129 143 123 136 150 165 145 135 132 80 66 42 35 28 20 34 57 75 84 87 79 79 77 69 61 61 66 68 63 57 55 55 47 40 56 68 68 69 57 53 42 61 52
118 96 74 79 53 86 95 103 112 110 106 96 103 91 96 109 119 138 134 136 103 80 41 17 -6 -9 20 68 60 51 42 45 50 61 67 66 59 61 61 59 68 65 64 62 59 46 57 55 45 45 47 58 56 58
164 167 112 84 84 69 63 81 98 109 110 104 89 103 95 105 109 112 101 121 54 30 -5 11 27 52 65 43 31 31 38 28 32 34 55 65 44 54 61 63 52 50 59 62 63 69 56 66 58 48 47 59 56 55
134 130 123 103 43 34 38 80 44 60 62 42 47 44 25 35 47 58 71 35 13 11 31 -4 12 28 41 41 35 28 29 37 52 67 81 82 82 87 89 84 76 76 68 63 59 59 60 59 52 55 58 58 50 53
88 93 88 63 4 7 8 100 59 56 26 13 41 42 36 31 32 51 8 21 19 50 24 8 7 10 32 38 43 44 30 42 51 57 62 72 80 78 80 78 69 82 81 75 61 63 68 71 74 72 70 58 58 57
48 40 43 34 23 16 62 56 63 64 60 63 37 29 38 29 38 19 -4 9 34 23 2 5 12 30 28 29 28 34 28 32 57 60 60 75 100 110 88 90 82 77 71 74 71 77 76 81 77 70 68 61 59 54
36 59 57 49 76 61 56 56 54 50 37 41 39 33 34 38 16 10 -2 -9 4 -8 -5 -1 -0 3 34 35 34 34 25 29 44 67 61 72 102 108 118 94 90 82 67 75 78 77 82 82 76 70 64 55 58 53
46 66 59 54 62 55 46 34 29 35 60 43 27 29 37 26 22 7 -7 -3 -5 -8 -5 1 19 28 36 28 44 39 32 29 41 58 68 77 85 100 120 120 108 99 73 66 76 79 89 83 72 65 60 62 61 53
43 55 58 68 71 53 50 51 66 75 50 18 15 26 23 8 3 -17 -22 -12 -5 -9 -4 1 15 31 48 53 41 37 36 30 36 61 84 84 81 79 82 99 99 100 77 67 65 68 75 77 71 62 62 60 56 50
31 45 43 65 63 77 62 71 67 55 43 43 37 11 -5 -0 -33 -17 -18 1 27 57 45 29 17 26 41 45 45 54 54 59 81 93 100 102 99 101 102 98 94 87 76 65 62 67 67 69 68 66 60 56 62 56
27 37 43 52 58 61 67 71 60 60 73 87 65 54 44 49 53 52 67 63 74 103 103 88 71 62 75 61 43 27 50 56 69 67 65 78 90 100 96 93 90 84 78 81 79 70 65 66 66 63 68 69 76 72
25 38 21 31 40 44 57 77 74 80 112 113 77 64 61 68 81 81 94 93 78 72 68 63 69 61 71 67 59 40 25 33 28 41 55 63 76 116 110 102 98 94 85 82 87 80 70 71 79 77 76 75 70 69
39 31 30 40 41 50 55 67 84 104 119 117 116 98 100 117 133 124 113 91 85 90 89 77 64 45 61 57 52 54 33 13 18 27 47 72 98 112 108 103 95 89 81 78 83 81 81 74 71 72 74 77 79 68
47 47 36 37 42 40 61 79 88 100 111 112 120 126 152 207 187 143 109 113 112 98 75 80 76 57 44 48 49 41 30 72 69 64 85 98 105 105 103 98 90 86 87 98 95 93 86 79 76 75 77 75 72 65
31 36 51 48 53 56 66 75 90 93 112 125 134 154 195 235 202 159 103 88 88 78 77 79 73 89 84 87 82 83 96 104 116 119 118 114 113 107 99 95 91 87 93 97 95 91 90 84 77 70 66 60 56 48

GFSWCAN_con_3kmhel_114.txt.gz
Helicity
77 106 84 65 66 128 53 28 16 7 15 45 64 75 75 85 88 60 48 34 43 40 15 30 18 -3 15 32 35 21 35 35 29 11 -9 -9 -33 -25 8 2 2 -29 42 30 56 56 65 137 54 52 54 28 43 18
72 80 86 80 57 13 37 45 33 11 9 38 48 62 63 79 77 63 64 28 42 63 24 20 40 22 -13 -3 20 34 40 33 30 27 27 6 -36 -6 9 18 -5 6 -15 -28 -18 4 11 4 38 66 100 85 31 22
71 76 105 81 78 49 55 52 43 40 30 40 37 48 58 58 67 57 60 41 52 27 31 18 9 32 6 34 9 24 29 31 46 15 11 9 -8 -5 -26 13 17 -9 11 -28 -50 -16 -4 34 44 95 135 116 86 84
59 63 116 123 100 74 76 72 49 38 29 26 28 40 54 46 65 65 47 21 56 18 29 45 50 19 12 26 58 22 -2 22 24 18 27 14 11 23 -17 7 13 11 7 -22 -26 -10 -3 49 51 73 91 118 83 59
101 74 86 105 70 62 34 49 50 39 28 9 15 34 47 48 59 61 38 31 21 45 36 22 33 -3 110 40 12 20 61 47 63 57 46 34 25 30 21 13 63 33 -0 -17 -8 -22 -46 31 47 56 52 74 90 77
66 90 102 106 113 70 57 47 43 43 39 17 10 26 38 49 68 71 67 9 32 58 21 18 33 12 53 43 46 34 49 62 75 69 53 32 11 21 12 9 45 27 18 4 -8 -18 11 18 38 43 41 38 48 67
22 52 71 82 104 98 64 41 53 48 37 20 -7 12 40 57 84 103 109 89 44 131 53 21 21 86 71 38 58 63 84 88 64 63 50 28 42 30 18 13 71 30 11 10 15 -3 20 58 34 35 24 4 -1 32
21 29 49 70 94 101 122 67 28 41 45 35 14 14 51 66 81 15 -3 4 43 71 54 40 24 30 31 47 52 48 59 75 55 44 25 34 29 48 47 75 58 19 17 18 6 27 45 41 40 47 61 63 27 33
10 18 23 44 57 44 67 72 30 15 29 22 19 31 73 108 96 23 21 -0 12 38 40 44 44 24 28 32 39 42 44 34 32 32 1 27 32 71 123 113 111 69 41 16 18 29 19 25 22 22 43 74 78 49
9 10 17 21 37 60 83 67 40 43 50 29 22 96 121 78 48 50 73 66 52 53 64 21 16 20 18 34 25 26 26 16 17 33 29 42 90 143 178 182 152 108 97 103 37 59 60 44 14 13 35 49 79 90
17 8 9 17 19 45 70 63 41 45 55 70 91 113 84 45 98 77 75 72 68 72 63 44 22 30 54 44 44 28 31 19 14 10 25 28 82 123 133 136 126 115 120 145 165 168 141 112 92 84 76 93 90 80
18 11 8 8 18 43 73 41 43 66 65 84 93 47 22 69 89 88 54 81 70 71 59 29 41 43 71 72 50 25 37 41 10 63 44 51 101 115 106 98 72 84 100 119 139 118 140 151 152 150 120 101 97 83
22 25 14 6 21 46 49 23 28 40 53 78 60 34 42 94 98 81 90 130 105 79 78 85 70 61 72 54 66 55 35 24 35 51 65 93 140 128 119 100 109 128 126 113 101 98 92 107 149 138 111 109 96 106
34 31 18 13 34 54 39 20 8 51 75 90 20 41 46 112 99 89 65 56 89 102 77 65 47 39 71 65 57 40 36 34 42 27 77 108 158 130 137 139 123 105 95 97 88 73 81 78 81 81 82 89 93 102
44 33 18 24 48 48 34 24 34 96 66 133 10 83 85 104 137 106 142 135 148 85 86 54 63 48 49 53 39 35 30 19 65 73 82 129 122 115 109 103 96 85 67 67 68 66 60 51 55 61 70 67 70 70
35 44 23 27 62 27 28 135 134 77 53 66 60 45 130 88 54 66 108 116 105 53 35 83 65 54 45 44 32 33 41 43 33 71 123 134 137 122 117 108 99 92 85 79 71 65 59 47 38 39 39 50 57 62
6 59 30 55 40 32 101 126 91 95 84 4 27 25 89 100 60 73 75 68 95 82 53 70 57 65 45 15 11 50 47 95 111 126 118 104 109 115 104 82 63 62 63 60 56 47 32 16 3 22 47 14 9 3
35 48 36 44 99 173 124 90 92 81 -29 -81 -33 8 34 73 26 69 85 75 90 74 61 58 35 12 -3 -8 2 56 105 143 145 134 127 120 95 61 50 61 54 56 62 53 41 27 20 8 36 50 23 25 -3 -1
42 28 -5 38 85 112 61 16 55 -10 -52 -59 -62 -10 80 55 61 62 75 113 109 106 91 60 30 21 33 46 92 123 133 119 125 111 87 80 74 70 61 57 56 63 52 40 33 48 59 64 60 46 37 31 46 43
10 -18 22 19 69 98 57 9 45 -27 -30 -17 5 21 82 77 66 77 89 81 79 78 47 40 42 40 50 89 127 123 138 124 83 76 67 52 47 52 51 39 60 59 57 60 58 29 38 38 53 59 58 54 68 78
-10 7 6 50 23 47 18 44 90 -3 -29 41 73 53 58 57 68 78 83 92 82 65 26 43 78 125 165 179 169 123 69 28 28 36 46 47 30 42 48 69 60 45 68 72 98 88 68 99 93 85 78 93 72 84
241 117 71 29 53 -14 20 65 39 60 70 48 67 56 45 65 56 64 81 77 69 70 50 65 94 139 144 125 87 59 49 55 90 84 72 56 51 64 77 70 66 81 99 110 112 137 125 133 109 91 95 85 82 109
77 45 47 28 53 37 47 56 84 56 38 68 65 37 33 33 36 63 18 33 31 35 75 99 109 140 161 131 101 79 55 51 56 61 46 55 78 82 84 76 83 97 113 128 119 129 148 108 110 110 102 80 94 93
107 45 61 60 52 31 62 50 48 62 54 64 34 24 1 9 42 35 -10 -30 -6 59 94 163 161 140 98 74 60 56 43 68 69 69 77 88 87 81 78 85 96 108 124 135 125 141 133 142 106 91 109 89 105 91
44 51 46 14 16 12 21 29 35 32 19 28 10 3 -22 8 1 -4 -10 -42 -23 10 32 55 50 35 37 44 60 70 60 52 59 80 69 68 97 85 78 77 86 106 92 96 102 114 141 126 107 106 103 83 88 81
1 27 30 1 8 9 -7 4 7 -1 8 13 8 -10 2 7 -7 -14 -8 -6 29 74 75 59 55 45 46 64 71 57 41 41 77 96 86 83 75 62 68 73 74 91 79 79 109 109 137 134 121 132 102 109 106 85
3 8 12 46 50 25 36 55 33 39 29 12 13 7 16 1 -4 2 21 40 59 92 59 40 36 41 78 83 79 86 79 78 68 110 115 106 92 81 79 72 92 141 113 92 92 96 112 147 129 125 106 106 119 96
24 47 32 47 48 71 60 50 42 35 30 36 28 23 2 25 16 45 42 86 114 99 67 63 63 87 105 147 178 163 146 153 200 160 120 88 71 73 87 97 124 146 124 95 93 98 98 109 119 135 117 114 136 132
33 55 54 69 68 51 57 57 37 45 72 106 58 49 49 64 77 115 107 115 125 115 137 159 189 236 258 208 155 127 103 112 136 142 121 105 83 60 65 79 87 87 96 106 116 116 118 128 133 124 134 122 128 118
34 59 46 49 49 35 34 74 47 53 89 114 97 59 52 72 99 179 174 125 149 149 159 197 208 207 198 175 161 138 96 79 75 79 96 93 77 126 87 83 88 85 84 95 117 113 104 111 115 118 129 133 127 113
42 39 33 36 33 44 43 44 46 58 85 105 136 114 85 78 136 233 296 181 188 200 201 189 179 163 171 165 154 153 157 124 135 146 155 157 132 103 91 87 91 90 91 101 98 87 116 98 94 103 111 111 131 126
37 43 32 29 32 34 37 48 51 66 71 79 101 97 83 88 128 163 240 320 166 180 172 172 174 174 162 167 167 152 117 135 118 126 119 101 105 129 131 123 116 101 107 110 102 119 109 98 98 100 98 102 107 114
39 46 41 29 27 26 45 43 49 61 71 92 121 149 195 207 181 163 219 328 414 250 205 227 278 306 289 256 219 204 167 145 132 120 121 143 152 130 119 111 107 119 118 107 114 116 122 113 104 104 103 105 110 104

GFSWCAN_con_3kmhel_117.txt.gz
Helicity
29 50 99 63 34 26 14 18 33 34 26 36 61 72 77 89 82 76 85 42 42 27 14 20 28 26 28 29 24 15 33 41 33 64 58 42 29 12 6 -2 -12 2 -6 25 26 25 44 30 26 68 44 52 24 23
146 79 34 47 58 62 35 38 34 32 21 28 43 57 66 81 81 100 110 70 54 32 18 17 28 24 40 19 31 22 28 25 36 51 55 45 42 21 30 7 -30 -1 -8 -1 1 -15 -3 -4 13 27 104 94 111 80
67 80 108 52 18 31 94 57 42 20 -1 7 23 40 46 66 81 96 111 61 48 32 42 39 34 -19 -2 32 43 64 29 46 58 21 41 35 51 39 44 13 22 9 13 -17 -41 10 22 31 38 53 72 111 91 87
63 70 46 71 82 63 49 31 40 33 11 13 27 36 46 50 76 97 92 50 54 33 70 79 59 27 20 33 46 63 19 38 33 31 46 48 42 49 42 20 21 26 15 -1 -0 12 40 14 30 49 76 99 102 51
70 83 113 73 68 94 42 16 43 50 48 22 18 29 45 54 65 83 81 35 35 42 38 73 110 8 -8 80 42 60 46 45 51 58 63 45 44 53 39 37 41 18 14 -0 -1 -17 -29 21 15 37 60 75 88 101
101 74 99 135 109 74 62 78 84 63 49 19 11 21 37 47 61 107 104 39 34 47 26 38 28 11 36 39 34 28 90 71 63 58 47 30 32 52 58 59 42 36 18 -12 -6 -17 15 17 24 21 16 22 61 70
96 122 74 97 131 98 63 61 51 46 48 25 11 10 29 49 95 125 107 82 113 61 31 41 43 43 108 66 67 71 82 62 66 57 64 47 60 48 47 59 57 52 31 20 -4 -5 47 52 23 34 41 21 36 54
24 71 100 67 93 134 72 54 40 26 41 33 17 11 25 53 81 31 29 72 87 68 39 50 43 31 46 40 47 50 48 45 41 53 36 31 49 39 56 69 64 54 42 25 33 56 69 57 59 45 69 110 91 75
31 31 54 97 118 102 87 63 29 38 50 52 39 25 54 74 46 16 10 -13 -3 28 65 49 44 28 21 34 40 28 24 20 12 33 22 27 29 75 128 179 149 128 97 52 29 36 40 53 53 61 80 115 128 110
29 31 32 47 104 149 119 87 57 55 56 52 80 80 80 46 40 69 77 21 37 26 55 22 24 25 24 30 15 21 19 6 3 10 41 46 51 114 189 236 206 156 137 158 134 184 116 80 38 62 92 102 113 96
9 12 23 32 39 63 74 65 57 62 80 130 77 82 64 30 103 98 86 72 101 80 60 8 55 41 40 65 55 24 20 16 12 9 44 50 74 123 134 145 139 138 149 177 192 221 208 197 176 139 108 88 88 90
15 -1 -1 15 28 49 42 34 52 125 100 45 44 45 52 80 91 89 93 90 68 66 67 37 42 67 82 81 62 23 24 36 3 47 56 63 88 126 94 91 122 129 117 136 130 132 153 177 151 132 97 90 94 91
13 -0 -10 3 19 38 61 33 28 73 103 87 43 42 82 60 90 107 116 121 111 30 46 99 115 104 78 62 83 62 37 26 21 50 71 71 149 127 133 154 142 144 134 123 120 114 126 135 132 105 85 68 76 101
25 11 6 3 16 43 57 21 32 82 78 85 75 21 55 74 61 66 82 87 57 78 135 109 85 68 86 76 63 40 33 40 35 45 68 120 169 188 173 131 110 98 95 99 93 94 90 84 95 105 95 86 78 101
28 17 14 10 14 43 41 31 24 116 85 120 93 40 -22 24 100 101 86 132 153 120 117 89 81 59 63 49 37 44 37 23 40 38 71 169 168 155 133 106 100 92 80 73 64 61 58 67 79 88 80 71 71 77
19 37 53 13 27 47 29 36 119 96 78 126 126 98 27 63 78 92 112 173 160 96 106 117 79 46 40 42 42 34 49 34 22 71 148 190 181 151 130 117 101 82 72 62 59 57 57 57 44 23 32 35 33 35
63 118 25 16 51 38 79 216 181 80 75 41 -81 -53 50 79 45 40 69 83 117 51 103 76 50 43 70 47 44 68 60 61 109 139 140 136 136 127 111 93 70 63 62 56 45 36 20 25 39 17 19 -24 -11 -6
129 61 31 48 87 119 270 178 92 26 -24 -34 23 -12 45 75 35 20 33 70 100 83 74 58 61 63 45 18 4 13 99 168 187 180 146 130 102 79 61 56 53 56 56 44 31 22 23 19 17 6 5 3 17 -7
90 58 37 69 126 227 176 96 60 -17 -40 -4 -60 -44 73 110 70 46 49 68 70 109 83 67 9 5 10 22 28 144 173 182 177 137 102 75 58 53 62 58 61 41 27 14 20 27 42 61 66 52 52 50 55 54
-2 16 72 50 117 133 74 15 22 23 -3 -5 -86 -72 -13 39 74 53 58 80 86 85 46 31 42 24 12 74 101 168 189 205 194 147 110 67 53 54 37 19 18 15 31 24 38 60 76 68 91 101 93 108 121 115
71 60 17 45 33 51 27 9 29 -16 -41 -4 25 33 10 27 53 65 74 81 69 53 42 47 63 85 127 152 184 209 157 118 77 56 68 58 10 10 -0 -1 23 25 55 57 69 61 118 148 141 126 132 116 113 104
90 35 77 5 -29 26 9 9 10 9 17 4 24 31 -7 12 33 67 58 58 35 53 40 80 105 124 149 153 132 98 40 31 79 82 70 57 29 29 43 27 45 48 90 106 111 140 166 149 131 138 130 119 121 94
110 51 -5 -0 7 -23 -27 12 28 10 20 5 40 35 42 47 38 44 19 19 27 41 111 135 117 136 201 189 172 134 117 152 109 86 63 31 38 40 43 55 66 117 129 113 121 150 127 120 140 144 135 118 126 91
27 31 31 7 -8 -25 26 30 21 32 62 61 42 28 13 35 26 44 16 -17 10 111 150 201 229 242 207 165 109 69 69 95 90 79 63 93 104 113 121 144 160 148 127 132 143 131 130 118 106 121 139 144 151 123
20 2 3 24 10 22 10 22 40 36 40 57 43 34 9 26 12 10 15 15 35 71 108 200 194 150 142 89 67 62 93 121 119 117 81 105 135 158 156 131 125 131 129 134 119 133 122 100 106 132 128 162 157 137
-22 -14 -3 -15 -5 2 5 17 20 26 25 30 10 17 10 -19 -31 -31 -5 -14 29 99 174 171 146 132 100 91 114 109 94 103 127 109 83 150 143 146 142 159 132 71 80 105 115 132 124 106 111 135 130 137 148 147
-40 -41 -11 20 44 27 32 48 32 22 5 -9 -8 -5 -24 -30 -18 16 18 36 47 128 155 138 99 93 101 124 122 139 142 125 132 173 214 222 178 115 96 107 119 114 122 108 119 138 138 131 127 119 109 125 137 145
-29 -12 -12 48 49 68 32 31 14 14 26 37 20 17 -7 8 23 39 20 43 104 124 123 85 72 84 144 178 234 279 286 326 376 334 279 214 138 126 146 187 202 202 156 128 123 131 149 133 136 136 130 144 171 158
17 27 22 64 65 32 46 55 32 32 72 94 51 51 47 57 68 117 100 82 115 158 179 228 253 299 334 319 290 280 268 267 278 221 195 168 128 98 94 127 144 130 123 146 167 154 162 174 187 179 175 142 119 140
31 52 37 42 29 19 23 53 41 45 69 97 76 65 68 78 127 185 175 81 126 170 209 231 238 272 274 271 249 223 173 161 147 160 159 135 98 111 102 101 122 123 111 127 138 137 139 143 147 149 158 150 144 135
39 42 35 33 37 39 30 37 45 69 96 99 129 97 70 73 155 235 297 242 198 253 263 249 233 196 225 228 225 221 219 200 180 148 150 178 169 132 120 110 102 122 132 125 115 123 127 126 129 136 125 121 142 143
37 42 28 29 34 35 46 50 42 53 62 71 78 86 82 135 172 212 310 356 207 176 186 197 199 174 164 170 185 211 204 196 209 182 181 168 152 142 139 128 112 121 141 139 138 149 137 138 150 153 147 140 142 146
31 45 38 35 37 27 42 43 38 58 71 89 113 127 156 165 175 227 234 364 360 304 199 225 244 281 281 274 255 230 211 207 200 185 175 186 189 186 177 159 155 165 172 166 160 150 154 168 162 163 159 160 158 142

GFSWCAN_con_3kmhel_120.txt.gz
Helicity
54 45 34 37 28 43 46 49 52 28 38 55 62 68 86 90 82 94 90 70 45 42 45 44 44 32 37 37 45 11 40 47 55 57 58 48 76 66 41 5 21 25 12 24 47 23 29 58 7 35 18 82 75 22
41 37 41 71 67 41 38 16 28 33 33 41 49 67 80 71 111 114 90 70 42 43 36 35 30 39 27 25 41 20 20 21 30 44 46 45 52 69 68 45 17 13 3 19 3 2 16 8 16 31 67 47 56 86
46 22 22 61 83 56 33 32 38 43 52 30 33 54 65 96 122 114 95 66 52 53 68 70 103 56 16 17 56 38 17 24 35 27 34 34 42 56 70 56 47 28 16 29 18 21 28 24 23 51 70 85 59 69
115 104 54 45 115 68 68 45 46 41 25 18 18 33 52 96 114 109 90 57 46 60 98 72 86 55 9 46 33 20 30 48 38 29 29 35 38 36 50 47 60 35 26 23 33 30 33 29 26 30 53 80 91 64
61 80 102 40 40 113 97 72 42 30 33 10 7 24 43 66 91 99 76 40 41 53 48 104 88 37 13 59 25 40 43 39 40 42 55 38 30 46 46 44 64 38 32 25 8 4 -3 18 10 13 26 50 71 91
18 68 37 15 60 87 46 37 47 43 38 9 8 26 43 57 85 109 98 62 51 40 57 79 62 48 17 32 20 30 56 45 46 44 36 28 28 65 75 74 62 40 29 19 6 9 21 16 8 3 14 28 51 68
69 76 80 77 53 24 50 45 43 56 45 31 24 26 41 63 101 121 88 87 73 45 50 90 80 42 26 61 51 58 44 34 42 37 47 50 62 82 45 42 64 45 41 39 31 34 47 53 40 22 28 74 88 66
70 69 86 124 103 67 51 45 67 80 55 43 36 37 42 57 90 86 77 68 80 53 47 84 73 53 31 41 42 32 36 28 28 31 39 47 42 40 43 61 65 48 43 41 51 55 72 85 74 73 109 115 117 76
63 67 104 147 181 86 66 62 65 73 72 60 49 42 60 63 68 65 57 30 63 55 56 50 65 60 26 31 18 20 19 14 5 11 7 35 22 43 79 144 136 97 52 28 40 63 69 68 65 84 111 123 98 76
42 53 58 61 146 112 71 72 74 81 79 92 95 64 78 51 73 73 89 67 68 59 49 16 34 47 28 24 14 22 14 6 13 -8 27 35 44 92 157 184 163 136 122 111 180 166 123 77 101 95 97 92 85 66
48 51 66 58 52 112 81 67 61 74 153 108 75 83 94 76 135 102 94 103 101 63 18 -24 10 25 23 38 24 13 19 11 14 3 36 43 70 119 143 156 136 111 112 145 164 158 143 144 106 88 85 78 74 78
21 41 54 71 94 103 54 65 123 181 71 35 34 82 131 150 131 117 114 102 76 63 21 21 24 44 66 56 49 25 18 25 10 30 23 50 61 149 149 120 100 104 118 133 129 141 151 154 129 109 90 86 84 80
4 12 31 47 60 75 93 83 100 87 113 91 21 88 108 88 130 131 140 138 117 7 51 63 76 64 67 64 63 46 25 22 39 49 42 54 131 145 132 128 106 90 92 101 119 128 132 137 121 94 84 65 69 89
8 2 8 24 45 38 37 49 75 111 112 68 -3 148 120 114 88 75 73 55 39 33 53 93 113 77 74 74 38 53 31 41 47 37 44 91 151 128 114 93 99 96 94 97 95 94 100 102 99 93 76 57 72 77
17 3 -2 15 29 50 47 44 73 121 105 70 52 122 68 38 40 44 22 36 46 63 128 119 95 66 91 71 45 44 43 34 14 13 24 103 143 147 128 108 109 94 75 67 58 65 66 67 66 53 41 39 43 52
26 24 46 12 34 86 43 52 106 130 70 78 105 47 25 15 34 34 37 28 63 97 139 106 64 50 60 56 48 33 38 23 17 28 72 158 153 130 119 100 80 66 63 61 58 49 45 43 36 20 20 27 24 22
35 80 19 14 46 64 114 145 111 82 87 60 77 90 57 48 153 57 64 83 137 91 113 84 65 52 56 47 45 48 56 41 44 79 114 136 141 130 111 88 71 66 63 55 43 41 32 24 42 36 44 9 16 18
93 56 22 36 78 110 129 85 83 58 20 11 53 8 10 36 127 78 80 70 93 74 80 72 70 62 35 35 39 36 58 98 104 103 126 129 125 92 83 80 64 62 48 27 14 4 18 31 34 28 49 39 37 31
89 75 47 73 101 122 58 121 137 8 -9 -41 -77 -37 -64 117 252 130 54 37 68 106 71 66 31 10 39 41 8 14 40 88 105 114 104 80 78 80 72 61 51 34 29 12 8 13 23 31 34 46 62 96 97 70
30 67 41 33 95 89 81 58 32 -18 -46 -39 -19 -63 -8 186 161 133 69 50 33 62 69 26 1 15 -14 1 21 52 133 200 235 188 102 55 50 69 53 46 24 15 14 -1 -3 12 26 73 96 104 123 158 175 154
81 48 25 99 96 85 54 5 0 8 -13 10 -3 -30 39 94 124 102 83 48 50 46 28 32 24 20 24 43 82 153 184 189 140 92 96 80 43 55 40 20 22 13 10 16 37 34 60 89 93 113 133 143 138 127
101 89 115 47 42 40 5 -3 17 11 8 12 11 20 22 49 33 52 31 41 43 46 20 21 37 73 71 64 74 106 131 115 114 105 106 115 92 50 19 -7 18 -1 13 26 71 101 96 100 113 126 129 104 121 119
95 102 63 30 25 49 37 14 47 21 25 8 13 -6 -4 3 7 21 -10 1 34 40 28 52 38 44 58 86 124 130 121 118 97 88 85 72 47 30 16 6 16 39 50 69 122 144 134 115 112 118 117 117 118 109
73 32 -12 -7 28 27 16 30 26 31 14 28 19 14 2 7 14 -7 1 10 35 50 92 134 163 200 177 148 137 112 80 86 85 80 74 81 58 29 34 27 41 82 118 137 136 128 116 103 105 111 120 113 109 104
-16 4 18 22 9 23 22 25 52 44 23 27 30 27 -2 15 -6 0 9 27 43 56 70 136 172 163 162 149 143 105 88 118 107 88 65 74 79 98 97 103 102 121 163 176 149 129 96 91 90 111 121 119 121 117
-15 19 6 35 26 19 23 29 42 46 35 52 41 27 28 7 7 3 4 -6 -8 4 49 79 157 170 116 121 152 137 98 104 137 127 78 99 138 158 166 171 158 102 78 116 136 121 102 99 113 115 121 116 122 137
-13 24 24 26 23 20 19 32 39 37 25 11 11 12 -4 -15 -20 12 21 -9 -14 20 91 126 152 138 110 117 120 129 137 123 121 120 131 134 134 140 177 178 127 75 93 111 119 135 136 121 118 116 114 112 113 128
-22 -16 -11 -3 7 41 10 28 8 -1 12 25 11 2 -19 -10 33 29 10 20 2 86 136 129 132 144 145 170 194 235 261 261 284 278 290 278 222 149 120 127 116 163 147 139 135 127 132 147 142 134 132 133 127 136
-75 -48 -27 -4 23 20 19 20 16 16 31 26 20 38 40 44 29 23 11 40 21 127 157 203 239 258 268 279 250 212 226 263 289 230 217 203 174 143 129 165 207 205 186 177 160 157 150 142 142 154 153 154 159 169
42 46 40 43 34 30 27 14 10 34 50 46 50 42 55 56 80 121 136 68 44 85 126 160 172 201 212 212 204 199 209 196 191 224 201 180 159 168 168 171 176 172 172 172 179 188 211 216 223 217 211 202 197 187
30 25 14 17 7 4 7 24 37 47 64 76 104 70 60 64 97 203 266 246 119 111 141 166 190 193 209 196 196 209 178 154 132 116 117 119 147 155 157 149 151 155 146 139 150 170 184 186 184 185 182 179 169 166
22 14 3 14 27 42 53 47 39 46 69 79 85 95 121 145 154 179 281 291 261 235 143 146 155 148 137 146 146 148 119 150 172 177 163 168 171 169 163 157 157 143 144 141 136 155 173 198 185 156 162 150 146 160
38 45 48 42 51 43 47 52 50 67 88 81 109 109 128 132 139 174 221 283 269 247 223 185 173 163 155 152 147 145 144 143 160 174 184 194 199 196 187 170 164 168 167 164 158 168 167 186 187 186 199 192 188 181